When you browse on this site, cookies collect data to enhance your experience and personalize the content and advertising you see.
Visit our Privacy Policy to learn more. By continuing to use the site, you agree to this use of cookies and data.
  • In Sweden
  • List of Countries
  • For 7 days
  • Water Temperature
  • Weather Map
  • Weather Widgets
  • user-avatar
    Login

    Hourly Weather São Paulo

    Today, 8 April, Wednesday

    Time Temperature Precipitation Wind Pressure Humidity
    00:00 +20°C° 0.1 mm 3 mps 699 mmHg 88%
    01:00 +20°C° 0.1 mm 3 mps 699 mmHg 88%
    02:00 +20°C° 0.1 mm 3 mps 699 mmHg 88%
    03:00 +19°C° 0.1 mm 3 mps 699 mmHg 88%
    04:00 +19°C° 0.1 mm 3 mps 699 mmHg 88%
    05:00 +19°C° 0.1 mm 3 mps 699 mmHg 87%
    06:00 +19°C° 0.1 mm 3 mps 699 mmHg 86%
    07:00 +19°C° 0 mm 3 mps 699 mmHg 83%
    08:00 +20°C° 0 mm 3 mps 700 mmHg 80%
    09:00 +20°C° 0 mm 3 mps 700 mmHg 77%
    10:00 +21°C° 0 mm 3 mps 700 mmHg 74%
    11:00 +21°C° 0 mm 3 mps 700 mmHg 71%
    12:00 +22°C° 0 mm 4 mps 700 mmHg 68%
    13:00 +22°C° 0 mm 4 mps 699 mmHg 69%
    14:00 +21°C° 0 mm 4 mps 699 mmHg 71%
    15:00 +21°C° 0 mm 4 mps 698 mmHg 72%
    16:00 +20°C° 0 mm 4 mps 698 mmHg 75%
    17:00 +20°C° 0 mm 4 mps 698 mmHg 77%
    18:00 +19°C° 0 mm 4 mps 698 mmHg 80%
    19:00 +18°C° 0 mm 4 mps 698 mmHg 81%
    20:00 +18°C° 0 mm 3 mps 699 mmHg 82%
    21:00 +17°C° 0 mm 3 mps 699 mmHg 83%
    22:00 +17°C° 0 mm 3 mps 699 mmHg 83%
    23:00 +17°C° 0 mm 3 mps 699 mmHg 84%

    Tomorrow, 9 April, Thursday

    Time Temperature Precipitation Wind Pressure Humidity
    00:00 +17°C° 0 mm 3 mps 699 mmHg 84%
    01:00 +17°C° 0 mm 3 mps 699 mmHg 84%
    02:00 +16°C° 0 mm 3 mps 698 mmHg 85%
    03:00 +16°C° 0 mm 3 mps 698 mmHg 86%
    04:00 +16°C° 0 mm 3 mps 698 mmHg 86%
    05:00 +16°C° 0 mm 2 mps 698 mmHg 86%
    06:00 +16°C° 0 mm 2 mps 698 mmHg 86%
    07:00 +17°C° 0 mm 2 mps 698 mmHg 80%
    08:00 +17°C° 0 mm 3 mps 699 mmHg 74%
    09:00 +18°C° 0 mm 3 mps 699 mmHg 68%
    10:00 +20°C° 0 mm 3 mps 699 mmHg 63%
    11:00 +21°C° 0 mm 3 mps 699 mmHg 57%
    12:00 +24°C° 0 mm 2 mps 699 mmHg 51%
    13:00 +24°C° 0 mm 3 mps 699 mmHg 49%
    14:00 +25°C° 0 mm 3 mps 698 mmHg 46%
    15:00 +25°C° 0 mm 3 mps 698 mmHg 44%
    16:00 +24°C° 0 mm 3 mps 698 mmHg 52%
    17:00 +21°C° 0 mm 4 mps 698 mmHg 59%
    18:00 +19°C° 0 mm 4 mps 697 mmHg 67%
    19:00 +18°C° 0 mm 4 mps 698 mmHg 71%
    20:00 +17°C° 0 mm 3 mps 698 mmHg 75%
    21:00 +17°C° 0 mm 3 mps 698 mmHg 79%
    22:00 +16°C° 0 mm 3 mps 698 mmHg 80%
    23:00 +16°C° 0 mm 2 mps 698 mmHg 82%

    Day after tomorrow, 10 April, Friday

    Time Temperature Precipitation Wind Pressure Humidity
    00:00 +16°C° 0 mm 2 mps 698 mmHg 84%
    01:00 +16°C° 0 mm 2 mps 697 mmHg 85%
    02:00 +16°C° 0 mm 2 mps 697 mmHg 85%
    03:00 +16°C° 0 mm 2 mps 697 mmHg 86%
    04:00 +16°C° 0 mm 2 mps 697 mmHg 86%
    05:00 +16°C° 0 mm 1 mps 697 mmHg 86%
    06:00 +15°C° 0 mm 1 mps 697 mmHg 86%
    07:00 +17°C° 0 mm 2 mps 697 mmHg 81%
    08:00 +18°C° 0 mm 2 mps 698 mmHg 77%
    09:00 +19°C° 0 mm 2 mps 698 mmHg 72%
    10:00 +20°C° 0 mm 2 mps 698 mmHg 69%
    11:00 +21°C° 0 mm 2 mps 698 mmHg 67%
    12:00 +23°C° 0 mm 2 mps 698 mmHg 64%
    13:00 +23°C° 0 mm 2 mps 698 mmHg 64%
    14:00 +24°C° 0 mm 2 mps 697 mmHg 63%
    15:00 +24°C° 0 mm 2 mps 697 mmHg 62%
    16:00 +22°C° 0 mm 3 mps 697 mmHg 68%
    17:00 +21°C° 0 mm 3 mps 697 mmHg 73%
    18:00 +20°C° 0 mm 3 mps 697 mmHg 79%
    19:00 +19°C° 0 mm 3 mps 697 mmHg 81%
    20:00 +18°C° 0 mm 3 mps 697 mmHg 83%
    21:00 +18°C° 0 mm 2 mps 697 mmHg 85%
    22:00 +18°C° 0 mm 2 mps 697 mmHg 86%
    23:00 +17°C° 0 mm 2 mps 698 mmHg 86%

    11 April, Saturday

    Time Temperature Precipitation Wind Pressure Humidity
    00:00 +17°C° 0 mm 2 mps 698 mmHg 87%
    01:00 +17°C° 0 mm 2 mps 697 mmHg 86%
    02:00 +17°C° 0 mm 2 mps 697 mmHg 86%
    03:00 +18°C° 0 mm 1 mps 697 mmHg 86%
    04:00 +18°C° 0 mm 1 mps 697 mmHg 86%
    05:00 +18°C° 0 mm 1 mps 697 mmHg 86%
    06:00 +18°C° 0 mm 1 mps 697 mmHg 87%
    07:00 +18°C° 0 mm 2 mps 698 mmHg 83%
    08:00 +19°C° 0 mm 2 mps 698 mmHg 78%
    09:00 +20°C° 0 mm 2 mps 699 mmHg 74%
    10:00 +21°C° 0 mm 2 mps 699 mmHg 69%
    11:00 +23°C° 0 mm 2 mps 699 mmHg 64%
    12:00 +24°C° 0 mm 2 mps 699 mmHg 59%
    13:00 +24°C° 0.1 mm 3 mps 699 mmHg 60%
    14:00 +23°C° 0.1 mm 4 mps 699 mmHg 61%
    15:00 +23°C° 0.1 mm 4 mps 698 mmHg 62%
    16:00 +21°C° 0 mm 4 mps 698 mmHg 67%
    17:00 +20°C° 0 mm 4 mps 698 mmHg 73%
    18:00 +19°C° 0 mm 4 mps 698 mmHg 79%
    19:00 +19°C° 0 mm 3 mps 699 mmHg 80%
    20:00 +18°C° 0 mm 3 mps 699 mmHg 80%
    21:00 +18°C° 0 mm 3 mps 700 mmHg 81%
    22:00 +18°C° 0 mm 3 mps 700 mmHg 80%
    23:00 +18°C° 0 mm 3 mps 700 mmHg 80%

    12 April, Sunday

    Time Temperature Precipitation Wind Pressure Humidity
    00:00 +18°C° 0 mm 3 mps 700 mmHg 79%
    01:00 +17°C° 0 mm 3 mps 699 mmHg 82%
    02:00 +17°C° 0 mm 3 mps 699 mmHg 85%
    03:00 +16°C° 0 mm 2 mps 699 mmHg 88%
    04:00 +16°C° 0 mm 2 mps 699 mmHg 88%
    05:00 +16°C° 0 mm 2 mps 699 mmHg 88%
    06:00 +16°C° 0 mm 2 mps 699 mmHg 89%
    07:00 +17°C° 0 mm 2 mps 700 mmHg 83%
    08:00 +18°C° 0 mm 2 mps 700 mmHg 78%
    09:00 +19°C° 0 mm 3 mps 700 mmHg 73%
    10:00 +20°C° 0 mm 3 mps 701 mmHg 67%
    11:00 +22°C° 0 mm 3 mps 701 mmHg 62%
    12:00 +24°C° 0 mm 3 mps 701 mmHg 57%
    13:00 +24°C° 0.1 mm 3 mps 700 mmHg 58%
    14:00 +23°C° 0.1 mm 4 mps 700 mmHg 60%
    15:00 +22°C° 0.1 mm 4 mps 699 mmHg 61%
    16:00 +21°C° 0 mm 4 mps 699 mmHg 67%
    17:00 +20°C° 0 mm 4 mps 699 mmHg 73%
    18:00 +18°C° 0 mm 4 mps 699 mmHg 79%
    19:00 +18°C° 0 mm 4 mps 699 mmHg 80%
    20:00 +18°C° 0 mm 4 mps 700 mmHg 82%
    21:00 +18°C° 0 mm 3 mps 700 mmHg 83%
    22:00 +17°C° 0 mm 3 mps 700 mmHg 84%
    23:00 +17°C° 0 mm 3 mps 700 mmHg 85%

    13 April, Monday

    Time Temperature Precipitation Wind Pressure Humidity
    00:00 +17°C° 0 mm 3 mps 700 mmHg 86%
    01:00 +17°C° 0 mm 2 mps 700 mmHg 85%
    02:00 +17°C° 0 mm 2 mps 700 mmHg 85%
    03:00 +17°C° 0 mm 2 mps 699 mmHg 84%
    04:00 +17°C° 0 mm 2 mps 699 mmHg 85%
    05:00 +17°C° 0 mm 2 mps 699 mmHg 86%
    06:00 +17°C° 0 mm 2 mps 699 mmHg 87%
    07:00 +18°C° 0 mm 2 mps 700 mmHg 82%
    08:00 +18°C° 0 mm 2 mps 700 mmHg 77%
    09:00 +19°C° 0 mm 2 mps 700 mmHg 72%
    10:00 +21°C° 0 mm 2 mps 700 mmHg 63%
    11:00 +24°C° 0 mm 2 mps 701 mmHg 54%
    12:00 +26°C° 0 mm 1 mps 701 mmHg 46%
    13:00 +27°C° 0 mm 1 mps 700 mmHg 43%
    14:00 +27°C° 0 mm 1 mps 700 mmHg 41%
    15:00 +28°C° 0 mm 1 mps 699 mmHg 39%
    16:00 +26°C° 0 mm 2 mps 699 mmHg 50%
    17:00 +24°C° 0 mm 2 mps 699 mmHg 61%
    18:00 +21°C° 0 mm 3 mps 698 mmHg 72%
    19:00 +20°C° 0 mm 3 mps 698 mmHg 76%
    20:00 +20°C° 0 mm 2 mps 698 mmHg 79%
    21:00 +19°C° 0 mm 2 mps 699 mmHg 83%
    22:00 +19°C° 0 mm 2 mps 698 mmHg 83%
    23:00 +18°C° 0 mm 2 mps 698 mmHg 83%
    Show more